Вернуться в каталог

STARLINK-36503

АктивенСвязьVLEO
NORAD 67411·PAYLOAD·🇺🇸 United States

Запущен Jan 12, 2026 с Cape Canaveral Space Force Station

Loading…

Ближайшие Пролёты (ближайшие 24 часа)

TLE

СвежийSource: CelesTrak SupGP

Эпоха: Sep 15, 2026, 02:52 UTC

1 67411C 26005H   26258.11993056 -.00030883  00000+0 -11186-2 0  2589
2 67411  43.0021 248.0781 0001144 266.8329 270.3343 15.27592705    13

Отслеживайте STARLINK-36503 в реальном времени с AllMySat

Download on the App Store